Location: D�derode
(51.8092°N, 10.1065°E)
Time: 20:36:32
(UTC+00:00)

H-2A R/B - Pass Details

Date: 01 December 2020
Orbit: 734 x 836 km, 98.2° (Epoch: 25 January)

Event Time Altitude Azimuth Distance (km) Brightness Sun altitude
Exits shadow 15:54:48 - 89° (E) 2,871 4.4 -6.4°
Reaches altitude 10° 15:57:24 10° 66° (ENE) 2,341 3.8 -6.8°
Maximum altitude 15:59:00 11° 48° (NE) 2,232 3.8 -7.0°
Drops below altitude 10° 16:00:35 10° 30° (NNE) 2,324 4.0 -7.2°
Sets 16:04:34 0° 358° (N) 3,231 5.0 -7.8°
